Simultaneous Nadir Overpasses (SNOs) Predictions

Prediction of SNOs between NOAA-20 and METOP-B Satellite Orbit:

Table of predicted SNOs for the next 14.0 days since TLE Epoch: 9/11/2020
Index Date (NOAA-20) Time (NOAA-20) Lat,Lon (NOAA-20) SZA (NOAA-20 ) Date (METOP-B) Time (METOP-B) Lat,Lon (METOP-B) SZA (METOP-B ) Distance(km) Time Diff (sec)
1 09/17/2020 13:31:33 73.46, -32.65 71.62 09/17/2020 13:32:40 73.43, -29.99 71.48 84.57 67
2 09/17/2020 14:22:16 -73.41, 134.78 108.43 09/17/2020 14:23:24 -73.33, 137.11 108.61 74.84 68
3 09/17/2020 15:12:57 73.17, -57.37 71.32 09/17/2020 15:14:08 73.10, -56.04 71.20 43.41 71
4 09/17/2020 16:03:40 -73.12, 110.05 108.72 09/17/2020 16:04:51 -73.05, 111.17 108.84 36.95 71
5 09/17/2020 16:54:21 72.87, -82.11 71.03 09/17/2020 16:55:35 72.83, -81.97 70.97 6.77 74
6 09/17/2020 17:45:04 -72.82, 85.31 109.01 09/17/2020 17:46:17 -72.83, 85.36 109.02 1.73 73
7 09/17/2020 18:35:50 72.83,-107.40 71.01 09/17/2020 18:36:57 72.80,-107.36 70.98 3.04 67
8 09/17/2020 19:26:33 -72.78, 60.02 109.03 09/17/2020 19:27:39 -72.80, 59.97 109.01 3.19 66
9 09/17/2020 20:17:19 72.79,-132.68 70.99 09/17/2020 20:18:19 72.78,-132.75 70.98 2.33 60
10 09/17/2020 21:08:03 -72.79, 34.63 108.99 09/17/2020 21:09:01 -72.78, 34.58 109.01 1.86 58
11 09/17/2020 21:58:49 72.79,-158.07 71.03 09/17/2020 21:59:40 72.81,-158.03 71.03 1.99 51
12 09/17/2020 22:49:33 -72.80, 9.24 108.96 09/17/2020 22:50:22 -72.81, 9.30 108.96 2.30 49
13 09/17/2020 23:40:19 72.80, 176.54 71.07 09/17/2020 23:41:02 72.78, 176.58 71.04 2.39 43
14 09/18/2020 00:31:03 -72.80, -16.15 108.92 09/18/2020 00:31:44 -72.78, -16.09 108.95 2.78 41
15 09/18/2020 01:21:48 72.76, 151.25 71.05 09/18/2020 01:22:24 72.76, 151.19 71.04 2.09 36
16 09/18/2020 02:12:32 -72.76, -41.43 108.94 09/18/2020 02:13:06 -72.76, -41.48 108.95 1.51 34
17 09/18/2020 03:03:18 72.77, 125.86 71.08 09/18/2020 03:03:45 72.79, 125.91 71.10 2.75 27
18 09/18/2020 03:54:02 -72.77, -66.83 108.91 09/18/2020 03:54:27 -72.79, -66.76 108.89 3.05 25
19 09/18/2020 04:44:48 72.77, 100.47 71.12 09/18/2020 04:45:07 72.76, 100.52 71.10 1.90 19
20 09/18/2020 05:35:31 -72.78, -92.22 108.87 09/18/2020 05:35:48 -72.77, -92.15 108.89 2.37 17
21 09/18/2020 06:26:16 72.73, 75.19 71.10 09/18/2020 06:26:28 72.74, 75.13 71.11 2.15 12
22 09/18/2020 07:17:00 -72.73,-117.50 108.89 09/18/2020 07:17:10 -72.74,-117.54 108.88 1.67 10
23 09/18/2020 08:07:46 72.74, 49.80 71.13 09/18/2020 08:07:50 72.72, 49.74 71.11 3.12 4
24 09/18/2020 08:58:30 -72.74,-142.89 108.86 09/18/2020 08:58:32 -72.72,-142.93 108.88 2.74 2
25 09/18/2020 09:49:16 72.75, 24.41 71.17 09/18/2020 09:49:11 72.74, 24.46 71.16 1.70 5
26 09/18/2020 10:40:00 -72.75,-168.28 108.82 09/18/2020 10:39:53 -72.75,-168.21 108.82 2.27 7
27 09/18/2020 11:30:45 72.70, -0.88 71.15 09/18/2020 11:30:33 72.72, -0.93 71.17 2.51 12
28 09/18/2020 12:21:29 -72.70, 166.43 108.84 09/18/2020 12:21:15 -72.72, 166.40 108.82 2.22 14
29 09/18/2020 13:12:15 72.71, -26.27 71.19 09/18/2020 13:11:55 72.70, -26.32 71.17 2.38 20
30 09/18/2020 14:02:59 -72.71, 141.04 108.80 09/18/2020 14:02:37 -72.70, 141.01 108.81 1.86 22
31 09/18/2020 14:53:45 72.72, -51.66 71.22 09/18/2020 14:53:16 72.72, -51.60 71.23 1.91 29
32 09/18/2020 15:44:29 -72.72, 115.65 108.77 09/18/2020 15:43:58 -72.73, 115.73 108.76 2.54 31
33 09/18/2020 16:35:14 72.68, -76.94 71.20 09/18/2020 16:34:38 72.70, -76.99 71.23 3.05 36
34 09/18/2020 17:25:58 -72.68, 90.37 108.79 09/18/2020 17:25:20 -72.70, 90.34 108.76 2.96 38
35 09/18/2020 18:16:44 72.68,-102.34 71.24 09/18/2020 18:16:00 72.68,-102.38 71.24 1.72 44
36 09/18/2020 19:07:28 -72.68, 64.98 108.75 09/18/2020 19:06:42 -72.68, 64.95 108.75 1.06 46
37 09/18/2020 19:58:14 72.69,-127.73 71.27 09/18/2020 19:57:21 72.70,-127.66 71.29 2.41 53
38 09/18/2020 20:48:58 -72.69, 39.59 108.72 09/18/2020 20:48:03 -72.71, 39.67 108.70 3.08 55
39 09/18/2020 21:39:44 72.70,-153.12 71.31 09/18/2020 21:38:43 72.68,-153.05 71.29 3.05 61
40 09/18/2020 22:30:28 -72.70, 14.20 108.68 09/18/2020 22:29:25 -72.68, 14.28 108.69 3.35 63
41 09/18/2020 23:21:13 72.66,-178.40 71.29 09/18/2020 23:20:05 72.66,-178.44 71.30 1.29 68
42 09/19/2020 00:11:57 -72.66, -11.09 108.70 09/19/2020 00:10:47 -72.66, -11.11 108.69 0.67 70
43 09/19/2020 01:02:42 72.61, 156.31 71.27 09/19/2020 01:01:28 72.58, 156.07 71.26 8.87 74
44 09/19/2020 01:53:25 -72.56, -36.27 108.77 09/19/2020 01:52:11 -72.53, -36.70 108.78 14.65 74
45 09/19/2020 02:44:06 72.31, 131.53 70.98 09/19/2020 02:42:55 72.30, 130.17 71.03 46.05 71
46 09/19/2020 03:34:49 -72.27, -61.05 109.06 09/19/2020 03:33:38 -72.26, -62.59 109.00 52.03 71
47 09/19/2020 04:25:29 71.96, 106.84 70.63 09/19/2020 04:24:23 71.97, 104.20 70.75 90.86 66
48 09/19/2020 05:16:12 -71.92, -85.76 109.41 09/19/2020 05:15:06 -71.92, -88.56 109.28 96.66 66
